Time,TemperatureF,DewpointF,PressureIn,WindDirection,WindDirectionDegrees,WindSpeedMPH,WindSpeedGustMPH,Humidity,HourlyPrecipIn,Conditions,Clouds,dailyrainin,SoftwareType,DateUTC
2013-02-08 00:01:00,31.0,22.0,-100.00,NNW,340,4.0,7.0,70,-99.99,,,-99.99,,2013-02-08 00:01:00,
2013-02-08 00:11:00,30.0,24.0,-100.00,NNW,344,5.0,9.0,77,-99.99,,,-99.99,,2013-02-08 00:11:00,
2013-02-08 00:21:00,29.0,26.0,-100.00,North,8,4.0,8.0,90,-99.99,,,-99.99,,2013-02-08 00:21:00,
2013-02-08 00:31:00,29.0,27.0,-100.00,NW,306,3.0,6.0,92,-99.99,,,-99.99,,2013-02-08 00:31:00,
2013-02-08 00:41:00,29.0,27.0,-100.00,WNW,285,3.0,8.0,91,-99.99,,,-99.99,,2013-02-08 00:41:00,
2013-02-08 00:52:00,27.0,26.0,-100.00,West,272,6.0,9.0,93,-99.99,,,-99.99,,2013-02-08 00:52:00,
2013-02-08 01:01:00,27.0,25.0,-100.00,West,268,5.0,8.0,94,-99.99,,,-99.99,,2013-02-08 01:01:00,
2013-02-08 01:11:00,27.0,26.0,-100.00,West,272,6.0,8.0,93,-99.99,,,-99.99,,2013-02-08 01:11:00,
2013-02-08 01:21:00,27.0,25.0,-100.00,West,272,5.0,8.0,91,-99.99,,,-99.99,,2013-02-08 01:21:00,
2013-02-08 01:31:00,27.0,25.0,-100.00,WNW,295,3.0,5.0,91,-99.99,,,-99.99,,2013-02-08 01:31:00,
2013-02-08 01:41:00,27.0,25.0,-100.00,North,359,2.0,6.0,92,-99.99,,,-99.99,,2013-02-08 01:41:00,
2013-02-08 01:51:00,26.0,23.0,-100.00,WSW,239,4.0,9.0,88,-99.99,,,-99.99,,2013-02-08 01:51:00,
2013-02-08 02:01:00,27.0,21.0,-100.00,WSW,251,9.0,22.0,79,-99.99,,,-99.99,,2013-02-08 02:01:00,
2013-02-08 02:11:00,27.0,22.0,-100.00,SW,234,3.0,7.0,81,-99.99,,,-99.99,,2013-02-08 02:11:00,
2013-02-08 02:21:00,27.0,19.0,-100.00,West,271,6.0,11.0,70,-99.99,,,-99.99,,2013-02-08 02:21:00,
2013-02-08 02:31:00,27.0,18.0,-100.00,NNE,21,3.0,8.0,68,-99.99,,,-99.99,,2013-02-08 02:31:00,
2013-02-08 02:42:00,26.0,17.0,-100.00,North,0,4.0,6.0,67,-99.99,,,-99.99,,2013-02-08 02:42:00,
2013-02-08 02:52:00,26.0,16.0,-100.00,ENE,66,4.0,7.0,65,-99.99,,,-99.99,,2013-02-08 02:52:00,
2013-02-08 03:01:00,25.0,16.0,-100.00,NE,54,2.0,4.0,67,-99.99,,,-99.99,,2013-02-08 03:01:00,
2013-02-08 03:12:00,25.0,15.0,-100.00,East,95,4.0,8.0,65,-99.99,,,-99.99,,2013-02-08 03:12:00,
2013-02-08 03:22:00,25.0,15.0,-100.00,East,100,3.0,5.0,66,-99.99,,,-99.99,,2013-02-08 03:22:00,
2013-02-08 03:31:00,24.0,14.0,-100.00,NE,48,2.0,5.0,63,-99.99,,,-99.99,,2013-02-08 03:31:00,
2013-02-08 03:41:00,24.0,14.0,-100.00,East,86,4.0,9.0,64,-99.99,,,-99.99,,2013-02-08 03:41:00,
2013-02-08 03:51:00,24.0,14.0,-100.00,East,86,4.0,9.0,64,-99.99,,,-99.99,,2013-02-08 03:51:00,
2013-02-08 04:01:00,24.0,14.0,-100.00,East,86,4.0,9.0,64,-99.99,,,-99.99,,2013-02-08 04:01:00,
2013-02-08 04:11:00,24.0,14.0,-100.00,East,86,4.0,9.0,64,-99.99,,,-99.99,,2013-02-08 04:11:00,
2013-02-08 06:21:00,23.0,14.0,-100.00,East,80,2.0,4.0,69,-99.99,,,-99.99,,2013-02-08 06:21:00,
2013-02-08 06:31:00,23.0,14.0,-100.00,ESE,103,1.0,3.0,69,-99.99,,,-99.99,,2013-02-08 06:31:00,
2013-02-08 06:41:00,23.0,15.0,-100.00,ENE,71,1.0,4.0,70,-99.99,,,-99.99,,2013-02-08 06:41:00,
2013-02-08 06:51:00,23.0,15.0,-100.00,East,100,1.0,3.0,71,-99.99,,,-99.99,,2013-02-08 06:51:00,
2013-02-08 07:01:00,23.0,14.0,-100.00,NE,54,0.0,0.0,69,-99.99,,,-99.99,,2013-02-08 07:01:00,
2013-02-08 07:11:00,23.0,13.0,-100.00,SE,126,2.0,6.0,67,-99.99,,,-99.99,,2013-02-08 07:11:00,
2013-02-08 07:21:00,23.0,13.0,-100.00,East,93,3.0,7.0,66,-99.99,,,-99.99,,2013-02-08 07:21:00,
2013-02-08 07:31:00,23.0,13.0,-100.00,East,97,1.0,3.0,66,-99.99,,,-99.99,,2013-02-08 07:31:00,
2013-02-08 07:42:00,23.0,14.0,-100.00,NE,54,1.0,3.0,67,-99.99,,,-99.99,,2013-02-08 07:42:00,
2013-02-08 07:51:00,23.0,14.0,-100.00,ENE,69,2.0,4.0,67,-99.99,,,-99.99,,2013-02-08 07:51:00,
2013-02-08 08:01:00,23.0,14.0,-100.00,ENE,69,2.0,4.0,67,-99.99,,,-99.99,,2013-02-08 08:01:00,
2013-02-08 08:11:00,23.0,15.0,-100.00,NNE,17,0.0,0.0,70,-99.99,,,-99.99,,2013-02-08 08:11:00,
2013-02-08 08:21:00,23.0,15.0,-100.00,NW,311,0.0,0.0,70,-99.99,,,-99.99,,2013-02-08 08:21:00,
2013-02-08 08:32:00,23.0,15.0,-100.00,NE,42,0.0,0.0,69,-99.99,,,-99.99,,2013-02-08 08:32:00,
2013-02-08 08:41:00,23.0,16.0,-100.00,NE,48,0.0,0.0,72,-99.99,,,-99.99,,2013-02-08 08:41:00,
2013-02-08 08:52:00,23.0,16.0,-100.00,NE,40,0.0,0.0,73,-99.99,,,-99.99,,2013-02-08 08:52:00,
2013-02-08 09:02:00,23.0,16.0,-100.00,NE,54,0.0,0.0,75,-99.99,,,-99.99,,2013-02-08 09:02:00,
2013-02-08 09:11:00,23.0,16.0,-100.00,NE,52,0.0,0.0,75,-99.99,,,-99.99,,2013-02-08 09:11:00,
2013-02-08 09:21:00,23.0,16.0,-100.00,NE,48,0.0,0.0,77,-99.99,,,-99.99,,2013-02-08 09:21:00,
2013-02-08 09:31:00,22.0,16.0,-100.00,East,100,0.0,0.0,78,-99.99,,,-99.99,,2013-02-08 09:31:00,
2013-02-08 09:42:00,22.0,16.0,-100.00,East,100,0.0,0.0,78,-99.99,,,-99.99,,2013-02-08 09:42:00,
2013-02-08 09:51:00,22.0,16.0,-100.00,East,100,0.0,0.0,78,-99.99,,,-99.99,,2013-02-08 09:51:00,
2013-02-08 10:01:00,22.0,16.0,-100.00,East,100,0.0,0.0,78,-99.99,,,-99.99,,2013-02-08 10:01:00,
2013-02-08 10:31:00,20.0,13.0,-100.00,ESE,106,2.0,3.0,74,-99.99,,,-99.99,,2013-02-08 10:31:00,
2013-02-08 10:41:00,20.0,13.0,-100.00,ESE,106,2.0,3.0,74,-99.99,,,-99.99,,2013-02-08 10:41:00,
2013-02-08 10:51:00,20.0,13.0,-100.00,ESE,106,2.0,3.0,74,-99.99,,,-99.99,,2013-02-08 10:51:00,
2013-02-08 15:42:00,20.0,13.0,-100.00,NNE,32,0.0,0.0,74,-99.99,,,-99.99,,2013-02-08 15:42:00,
2013-02-08 15:52:00,20.0,13.0,-100.00,ESE,106,0.0,0.0,74,-99.99,,,-99.99,,2013-02-08 15:52:00,
2013-02-08 16:01:00,19.0,13.0,-100.00,East,80,4.0,8.0,75,-99.99,,,-99.99,,2013-02-08 16:01:00,
2013-02-08 16:11:00,19.0,13.0,-100.00,East,80,4.0,8.0,75,-99.99,,,-99.99,,2013-02-08 16:11:00,
2013-02-08 16:21:00,22.0,13.0,-100.00,East,80,5.0,9.0,68,-99.99,,,-99.99,,2013-02-08 16:21:00,
2013-02-08 16:32:00,22.0,13.0,-100.00,East,80,5.0,9.0,68,-99.99,,,-99.99,,2013-02-08 16:32:00,
2013-02-08 16:42:00,22.0,13.0,-100.00,East,80,5.0,9.0,68,-99.99,,,-99.99,,2013-02-08 16:42:00,
2013-02-08 16:51:00,22.0,13.0,-100.00,East,80,5.0,9.0,68,-99.99,,,-99.99,,2013-02-08 16:51:00,
2013-02-08 19:02:00,25.0,12.0,-100.00,NE,37,2.0,5.0,58,-99.99,,,-99.99,,2013-02-08 19:02:00,
2013-02-08 19:11:00,25.0,12.0,-100.00,NE,55,3.0,7.0,58,-99.99,,,-99.99,,2013-02-08 19:11:00,
2013-02-08 19:22:00,25.0,12.0,-100.00,North,349,2.0,6.0,56,-99.99,,,-99.99,,2013-02-08 19:22:00,
2013-02-08 19:32:00,26.0,12.0,-100.00,NW,318,3.0,4.0,54,-99.99,,,-99.99,,2013-02-08 19:32:00,
2013-02-08 19:41:00,27.0,14.0,-100.00,NW,305,3.0,6.0,59,-99.99,,,-99.99,,2013-02-08 19:41:00,
2013-02-08 19:52:00,25.0,12.0,-100.00,West,278,2.0,4.0,56,-99.99,,,-99.99,,2013-02-08 19:52:00,
2013-02-08 20:01:00,26.0,12.0,-100.00,NW,305,3.0,5.0,54,-99.99,,,-99.99,,2013-02-08 20:01:00,
2013-02-08 20:11:00,26.0,12.0,-100.00,NW,316,2.0,4.0,55,-99.99,,,-99.99,,2013-02-08 20:11:00,
2013-02-08 20:21:00,26.0,12.0,-100.00,WNW,301,3.0,4.0,55,-99.99,,,-99.99,,2013-02-08 20:21:00,
2013-02-08 20:31:00,27.0,12.0,-100.00,NNW,330,4.0,5.0,54,-99.99,,,-99.99,,2013-02-08 20:31:00,
2013-02-08 20:41:00,26.0,13.0,-100.00,NNW,336,2.0,4.0,57,-99.99,,,-99.99,,2013-02-08 20:41:00,
2013-02-08 20:52:00,27.0,12.0,-100.00,WNW,302,2.0,5.0,52,-99.99,,,-99.99,,2013-02-08 20:52:00,
2013-02-08 21:01:00,27.0,11.0,-100.00,NW,323,3.0,5.0,52,-99.99,,,-99.99,,2013-02-08 21:01:00,
2013-02-08 21:11:00,26.0,11.0,-100.00,East,100,5.0,8.0,53,-99.99,,,-99.99,,2013-02-08 21:11:00,
2013-02-08 21:21:00,26.0,12.0,-100.00,NNE,28,4.0,8.0,53,-99.99,,,-99.99,,2013-02-08 21:21:00,
2013-02-08 21:32:00,26.0,10.0,-100.00,NE,55,6.0,9.0,49,-99.99,,,-99.99,,2013-02-08 21:32:00,
2013-02-08 21:41:00,27.0,13.0,-100.00,NNW,328,3.0,9.0,54,-99.99,,,-99.99,,2013-02-08 21:41:00,
2013-02-08 21:52:00,26.0,10.0,-100.00,North,0,3.0,7.0,50,-99.99,,,-99.99,,2013-02-08 21:52:00,
2013-02-08 22:01:00,26.0,10.0,-100.00,North,0,3.0,7.0,50,-99.99,,,-99.99,,2013-02-08 22:01:00,
2013-02-08 22:11:00,27.0,9.0,-100.00,NE,38,7.0,14.0,46,-99.99,,,-99.99,,2013-02-08 22:11:00,
2013-02-08 22:21:00,27.0,8.0,-100.00,NW,312,3.0,7.0,44,-99.99,,,-99.99,,2013-02-08 22:21:00,
2013-02-08 22:31:00,28.0,9.0,-100.00,NNW,339,4.0,6.0,44,-99.99,,,-99.99,,2013-02-08 22:31:00,
2013-02-08 22:42:00,28.0,9.0,-100.00,NNW,347,3.0,6.0,45,-99.99,,,-99.99,,2013-02-08 22:42:00,
2013-02-08 22:51:00,28.0,12.0,-100.00,NNW,336,4.0,7.0,50,-99.99,,,-99.99,,2013-02-08 22:51:00,
2013-02-08 23:01:00,28.0,8.0,-100.00,NNW,343,3.0,5.0,42,-99.99,,,-99.99,,2013-02-08 23:01:00,
2013-02-08 23:11:00,29.0,7.0,-100.00,WNW,301,2.0,4.0,39,-99.99,,,-99.99,,2013-02-08 23:11:00,
2013-02-08 23:21:00,29.0,10.0,-100.00,NW,323,6.0,13.0,45,-99.99,,,-99.99,,2013-02-08 23:21:00,
2013-02-08 23:31:00,28.0,10.0,-100.00,NNE,25,4.0,11.0,47,-99.99,,,-99.99,,2013-02-08 23:31:00,
2013-02-08 23:41:00,28.0,11.0,-100.00,NNW,340,3.0,8.0,48,-99.99,,,-99.99,,2013-02-08 23:41:00,
2013-02-08 23:52:00,28.0,10.0,-100.00,NW,322,4.0,6.0,46,-99.99,,,-99.99,,2013-02-08 23:52:00,